This is the latest recevied weather packets stored in our database for station/object JF2ZGN-13. If no packets are shown the sender has not sent any weather packets the latest 10 day(s).
| Time | Temp. | Humidity | Pressure | Rain* | Wind** | Luminosity | Snow |
|---|---|---|---|---|---|---|---|
| 1787450636 | 22.78° C | 71% | 914 hPa | 0.25 mm | - | - | - |
| 1787450035 | 22.78° C | 64% | 913.9 hPa | 0.25 mm | - | - | - |
| 1787449434 | 22.22° C | 63% | 914 hPa | 0.25 mm | - | - | - |
| 1787448834 | 21.67° C | 60% | 914.2 hPa | 0.25 mm | - | - | - |
| 1787448234 | 21.67° C | 58% | 914.2 hPa | 0.25 mm | - | - | - |
| 1787447633 | 21.67° C | 58% | 914.3 hPa | 0.25 mm | - | - | - |
| 1787447032 | 21.11° C | 53% | 914 hPa | 0.25 mm | - | - | - |
| 1787446432 | 21.11° C | 54% | 914.2 hPa | 0.25 mm | - | - | - |
| 1787445831 | 21.11° C | 55% | 914.3 hPa | 0.25 mm | - | - | - |
| 1787445230 | 21.67° C | 60% | 914.3 hPa | 0.25 mm | - | - | - |
| 1787444629 | 21.67° C | 43% | 914.3 hPa | 0.25 mm | - | - | - |
| 1787444029 | 21.67° C | 40% | 914.2 hPa | 0.25 mm | - | - | - |
| 1787443429 | 21.11° C | 45% | 914.2 hPa | 0.25 mm | - | - | - |
| 1787442828 | 21.11° C | 51% | 913.9 hPa | 0.25 mm | - | - | - |
| 1787442227 | 20.56° C | 51% | 914.1 hPa | 0.25 mm | - | - | - |
| 1787441627 | 20.56° C | 49% | 914.1 hPa | 0.25 mm | - | - | - |
| 1787441026 | 20.56° C | 50% | 914 hPa | 0.25 mm | - | - | - |
| 1787440426 | 20.56° C | 52% | 913.9 hPa | 0.25 mm | - | - | - |
| 1787439825 | 20.56° C | 47% | 913.9 hPa | 0.25 mm | - | - | - |
| 1787439225 | 20.56° C | 39% | 913.9 hPa | 0.25 mm | - | - | - |
| 1787438625 | 20.56° C | 40% | 913.8 hPa | 0.25 mm | - | - | - |
| 1787438024 | 20.56° C | 46% | 913.8 hPa | 0.25 mm | - | - | - |
| 1787437424 | 20.56° C | 43% | 913.6 hPa | 0.25 mm | - | - | - |
| 1787436823 | 20.56° C | 42% | 913.5 hPa | 0.25 mm | - | - | - |
| 1787436223 | 20.56° C | 38% | 913.4 hPa | 0.25 mm | - | - | - |
* Rain since midnight (hover to see other rain measurements)
** Current wind speed in m/s (hover to see current wind gust speed)